SP8K2 EPMO-ENBR

Flight info

Callsign SP8K2
Flight time 2h 4m
Altitude 40000
Route OLILA L621 GRUDA DCT BABOT Y41 LARMA DCT LALIL DCT PESUR
Aircraft CL60/M-SBDE1E2E3FGHIJ1J4J5J7M3RWXYZ/LB1V1D1

Departure

Time 2026-04-23 19:04
Airport Warsaw Modlin Airport (EPMO)

Arrival

Time 2026-04-23 21:08
Airport Bergen Airport, Flesland (ENBR)
Time Latitude Longitude Altitude Speed Heading
2026-04-23 18:36 52.44800 20.65824 340 ft 0 kts 37°
2026-04-23 18:58 52.44802 20.65826 340 ft 2 kts 37°
2026-04-23 18:59 52.44846 20.65885 339 ft 12 kts 58°
2026-04-23 18:59 52.44864 20.66043 339 ft 15 kts 81°
2026-04-23 18:59 52.44883 20.66238 339 ft 18 kts 82°
2026-04-23 18:59 52.44904 20.66464 338 ft 21 kts 82°
2026-04-23 19:00 52.44928 20.66721 338 ft 24 kts 81°
2026-04-23 19:00 52.44952 20.66970 337 ft 11 kts 82°
2026-04-23 19:00 52.44992 20.67067 336 ft 14 kts 15°
2026-04-23 19:00 52.45103 20.67050 334 ft 17 kts 353°
2026-04-23 19:01 52.45192 20.67025 332 ft 0 kts 342°
2026-04-23 19:02 52.45193 20.67025 332 ft 0 kts 342°
2026-04-23 19:02 52.45240 20.66997 331 ft 14 kts 340°
2026-04-23 19:02 52.45282 20.66883 331 ft 11 kts 264°
2026-04-23 19:03 52.45276 20.66816 331 ft 0 kts 262°
2026-04-23 19:03 52.45260 20.66641 331 ft 44 kts 261°
2026-04-23 19:03 52.45160 20.65592 333 ft 137 kts 263°
2026-04-23 19:03 52.44970 20.63758 728 ft 178 kts 265°
2026-04-23 19:04 52.44771 20.61766 1451 ft 183 kts 269°
2026-04-23 19:04 52.44581 20.59651 2350 ft 195 kts 270°
2026-04-23 19:04 52.44384 20.57467 3334 ft 203 kts 271°
2026-04-23 19:04 52.44300 20.55201 4377 ft 199 kts 288°
2026-04-23 19:05 52.44802 20.53178 5355 ft 203 kts 308°
2026-04-23 19:05 52.45777 20.51400 6241 ft 221 kts 323°
2026-04-23 19:05 52.46993 20.49826 7251 ft 235 kts 324°
2026-04-23 19:05 52.48286 20.48155 8371 ft 245 kts 325°
2026-04-23 19:06 52.49612 20.46435 9454 ft 253 kts 324°
2026-04-23 19:06 52.51040 20.44582 10183 ft 265 kts 325°
2026-04-23 19:06 52.52472 20.42716 10883 ft 263 kts 325°
2026-04-23 19:06 52.53906 20.40846 11572 ft 273 kts 326°
2026-04-23 19:07 52.55416 20.38880 12358 ft 288 kts 325°
2026-04-23 19:07 52.57003 20.36809 13240 ft 298 kts 326°
2026-04-23 19:07 52.58628 20.34681 14146 ft 305 kts 325°
2026-04-23 19:07 52.60287 20.32507 15072 ft 309 kts 325°
2026-04-23 19:08 52.61968 20.30300 16003 ft 312 kts 325°
2026-04-23 19:08 52.63646 20.28094 16937 ft 313 kts 325°
2026-04-23 19:08 52.65331 20.25876 17883 ft 313 kts 325°
2026-04-23 19:08 52.67027 20.23643 18825 ft 312 kts 326°
2026-04-23 19:09 52.68699 20.21436 19749 ft 311 kts 326°
2026-04-23 19:09 52.70360 20.19241 20608 ft 310 kts 327°
2026-04-23 19:09 52.72081 20.16971 21118 ft 320 kts 326°
2026-04-23 19:09 52.73837 20.14653 21603 ft 329 kts 326°
2026-04-23 19:10 52.75631 20.12281 22111 ft 335 kts 327°
2026-04-23 19:10 52.77452 20.09871 22638 ft 341 kts 327°
2026-04-23 19:10 52.79317 20.07403 23192 ft 346 kts 327°
2026-04-23 19:10 52.81177 20.04936 23751 ft 350 kts 327°
2026-04-23 19:11 52.83084 20.02403 24344 ft 353 kts 327°
2026-04-23 19:11 52.84994 19.99864 24941 ft 354 kts 327°
2026-04-23 19:11 52.86919 19.97300 25567 ft 356 kts 327°
2026-04-23 19:11 52.88183 19.95613 25984 ft 356 kts 327°
2026-04-23 19:12 52.90115 19.93034 26625 ft 357 kts 327°
2026-04-23 19:12 52.92665 19.89620 27468 ft 356 kts 327°
2026-04-23 19:12 52.94578 19.87056 28091 ft 355 kts 327°
2026-04-23 19:12 52.96501 19.84476 28707 ft 354 kts 327°
2026-04-23 19:13 52.98397 19.81929 29307 ft 353 kts 327°
2026-04-23 19:13 53.00296 19.79376 29897 ft 352 kts 327°
2026-04-23 19:13 53.02169 19.76855 30472 ft 350 kts 327°
2026-04-23 19:13 53.04052 19.74317 31004 ft 349 kts 328°
2026-04-23 19:14 53.05946 19.71762 31520 ft 347 kts 328°
2026-04-23 19:14 53.07806 19.69248 32022 ft 346 kts 328°
2026-04-23 19:14 53.09666 19.66732 32507 ft 344 kts 328°
2026-04-23 19:14 53.11492 19.64257 32997 ft 343 kts 328°
2026-04-23 19:15 53.13344 19.61739 33495 ft 341 kts 328°
2026-04-23 19:15 53.15170 19.59253 33975 ft 340 kts 328°
2026-04-23 19:15 53.16993 19.56768 34433 ft 338 kts 328°
2026-04-23 19:15 53.18800 19.54304 34853 ft 337 kts 328°
2026-04-23 19:16 53.20615 19.51826 35250 ft 336 kts 328°
2026-04-23 19:16 53.22427 19.49349 35627 ft 334 kts 328°
2026-04-23 19:16 53.24209 19.46911 35979 ft 333 kts 328°
2026-04-23 19:17 53.27790 19.42007 36710 ft 331 kts 328°
2026-04-23 19:17 53.29575 19.39557 37110 ft 330 kts 328°
2026-04-23 19:17 53.31356 19.37109 37481 ft 329 kts 328°
2026-04-23 19:17 53.33108 19.34701 37824 ft 329 kts 328°
2026-04-23 19:18 53.34874 19.32270 38142 ft 328 kts 328°
2026-04-23 19:18 53.36647 19.29827 38435 ft 328 kts 328°
2026-04-23 19:18 53.38403 19.27405 38719 ft 328 kts 328°
2026-04-23 19:18 53.40166 19.24971 38981 ft 328 kts 328°
2026-04-23 19:19 53.43681 19.20109 39462 ft 328 kts 328°
2026-04-23 19:19 53.45446 19.17663 39673 ft 328 kts 328°
2026-04-23 19:20 53.48960 19.12788 40054 ft 328 kts 328°
2026-04-23 19:20 53.50732 19.10328 40056 ft 332 kts 327°
2026-04-23 19:20 53.54327 19.05331 40072 ft 340 kts 327°
2026-04-23 19:21 53.59882 18.97584 40064 ft 351 kts 327°
2026-04-23 19:22 53.63657 18.92302 40062 ft 357 kts 327°
2026-04-23 19:22 53.69439 18.84188 40064 ft 365 kts 327°
2026-04-23 19:23 53.73360 18.78666 40067 ft 370 kts 327°
2026-04-23 19:24 53.79316 18.70255 40065 ft 376 kts 327°
2026-04-23 19:24 53.85354 18.61692 40064 ft 381 kts 327°
2026-04-23 19:25 53.93506 18.50079 40060 ft 385 kts 326°
2026-04-23 19:26 53.99673 18.41253 40057 ft 388 kts 326°
2026-04-23 19:27 54.09976 18.26428 40059 ft 390 kts 326°
2026-04-23 19:28 54.18261 18.14435 40059 ft 391 kts 325°
2026-04-23 19:29 54.24459 18.05418 40055 ft 390 kts 325°
2026-04-23 19:30 54.30666 17.96355 40055 ft 391 kts 325°
2026-04-23 19:31 54.36856 17.87277 40056 ft 391 kts 325°
2026-04-23 19:31 54.40983 17.81205 40063 ft 391 kts 325°
2026-04-23 19:32 54.45101 17.75129 40055 ft 391 kts 325°
2026-04-23 19:32 54.49144 17.69148 40060 ft 392 kts 325°
2026-04-23 19:33 54.53273 17.63023 40058 ft 391 kts 325°
2026-04-23 19:33 54.59428 17.53861 40061 ft 391 kts 324°
2026-04-23 19:34 54.63540 17.47719 40069 ft 391 kts 325°
2026-04-23 19:35 54.69729 17.38443 40067 ft 391 kts 324°
2026-04-23 19:35 54.73811 17.32304 40063 ft 391 kts 324°
2026-04-23 19:36 54.77927 17.26095 40050 ft 392 kts 324°
2026-04-23 19:36 54.82029 17.19891 40053 ft 392 kts 324°
2026-04-23 19:37 54.86108 17.13706 40051 ft 392 kts 323°
2026-04-23 19:37 54.90201 17.07481 40053 ft 392 kts 324°
2026-04-23 19:38 54.94282 17.01256 40054 ft 391 kts 323°
2026-04-23 19:38 54.98351 16.95032 40044 ft 390 kts 323°
2026-04-23 19:39 55.02414 16.88802 40041 ft 390 kts 323°
2026-04-23 19:39 55.06478 16.82552 40045 ft 391 kts 323°
2026-04-23 19:40 55.10560 16.76258 40045 ft 392 kts 323°
2026-04-23 19:40 55.14623 16.69974 40043 ft 392 kts 323°
2026-04-23 19:41 55.18705 16.63644 40043 ft 392 kts 323°
2026-04-23 19:41 55.22097 16.58371 40036 ft 393 kts 323°
2026-04-23 19:42 55.26827 16.50995 40039 ft 392 kts 323°
2026-04-23 19:42 55.30903 16.44584 40033 ft 392 kts 323°
2026-04-23 19:43 55.34940 16.38204 40038 ft 392 kts 323°
2026-04-23 19:43 55.39019 16.31742 40033 ft 393 kts 322°
2026-04-23 19:44 55.43072 16.25303 40028 ft 394 kts 322°
2026-04-23 19:44 55.47105 16.18876 40032 ft 394 kts 322°
2026-04-23 19:45 55.51166 16.12385 40029 ft 394 kts 322°
2026-04-23 19:45 55.55208 16.05907 40033 ft 394 kts 322°
2026-04-23 19:46 55.59273 15.99373 40040 ft 394 kts 322°
2026-04-23 19:46 55.63310 15.92865 40037 ft 393 kts 322°
2026-04-23 19:47 55.66642 15.87480 40039 ft 393 kts 321°
2026-04-23 19:47 55.71368 15.79820 40037 ft 394 kts 322°
2026-04-23 19:48 55.75386 15.73287 40037 ft 394 kts 321°
2026-04-23 19:48 55.79445 15.66669 40034 ft 394 kts 321°
2026-04-23 19:49 55.83457 15.60108 40038 ft 394 kts 321°
2026-04-23 19:49 55.87466 15.53532 40030 ft 394 kts 321°
2026-04-23 19:50 55.91495 15.46905 40029 ft 394 kts 321°
2026-04-23 19:50 55.95502 15.40294 40031 ft 393 kts 321°
2026-04-23 19:51 55.99484 15.33705 40027 ft 393 kts 320°
2026-04-23 19:51 56.03480 15.27076 40028 ft 394 kts 320°
2026-04-23 19:52 56.06824 15.21512 40027 ft 395 kts 320°
2026-04-23 19:52 56.11514 15.13687 40028 ft 395 kts 320°
2026-04-23 19:53 56.15516 15.06986 40028 ft 395 kts 320°
2026-04-23 19:53 56.19519 15.00265 40027 ft 395 kts 320°
2026-04-23 19:54 56.23523 14.93520 40029 ft 395 kts 320°
2026-04-23 19:54 56.27532 14.86749 40030 ft 395 kts 320°
2026-04-23 19:55 56.31504 14.80018 40031 ft 395 kts 320°
2026-04-23 19:55 56.35496 14.73235 40035 ft 396 kts 319°
2026-04-23 19:56 56.39478 14.66447 40033 ft 396 kts 319°
2026-04-23 19:56 56.43478 14.59610 40035 ft 397 kts 319°
2026-04-23 19:57 56.47477 14.52751 40037 ft 397 kts 319°
2026-04-23 19:57 56.50818 14.47008 40044 ft 398 kts 319°
2026-04-23 19:58 56.55453 14.39013 40045 ft 398 kts 319°
2026-04-23 19:58 56.59455 14.32086 40044 ft 398 kts 318°
2026-04-23 19:59 56.63439 14.25170 40054 ft 398 kts 318°
2026-04-23 19:59 56.67424 14.18231 40051 ft 398 kts 318°
2026-04-23 20:00 56.71425 14.11241 40060 ft 398 kts 318°
2026-04-23 20:00 56.75426 14.04231 40063 ft 398 kts 318°
2026-04-23 20:01 56.79397 13.97251 40063 ft 399 kts 317°
2026-04-23 20:01 56.83364 13.90256 40063 ft 399 kts 317°
2026-04-23 20:02 56.87357 13.83195 40065 ft 399 kts 317°
2026-04-23 20:02 56.91340 13.76130 40066 ft 400 kts 317°
2026-04-23 20:03 56.95332 13.69024 40067 ft 400 kts 317°
2026-04-23 20:03 56.99301 13.61938 40067 ft 400 kts 317°
2026-04-23 20:04 57.03300 13.54776 40067 ft 400 kts 317°
2026-04-23 20:04 57.07265 13.47651 40070 ft 401 kts 317°
2026-04-23 20:05 57.10589 13.41662 40071 ft 401 kts 317°
2026-04-23 20:05 57.15217 13.33296 40074 ft 403 kts 316°
2026-04-23 20:06 57.19209 13.26055 40075 ft 403 kts 316°
2026-04-23 20:06 57.23193 13.18804 40076 ft 402 kts 316°
2026-04-23 20:07 57.27168 13.11548 40078 ft 402 kts 316°
2026-04-23 20:07 57.31117 13.04315 40077 ft 402 kts 316°
2026-04-23 20:08 57.35079 12.97035 40081 ft 402 kts 316°
2026-04-23 20:08 57.39030 12.89750 40082 ft 402 kts 315°
2026-04-23 20:09 57.42986 12.82435 40081 ft 402 kts 315°
2026-04-23 20:09 57.46925 12.75126 40076 ft 403 kts 315°
2026-04-23 20:10 57.50228 12.68979 40075 ft 403 kts 315°
2026-04-23 20:10 57.54839 12.60368 40075 ft 403 kts 315°
2026-04-23 20:11 57.58778 12.52988 40077 ft 403 kts 315°
2026-04-23 20:11 57.62714 12.45588 40079 ft 403 kts 315°
2026-04-23 20:12 57.66638 12.38187 40080 ft 403 kts 315°
2026-04-23 20:12 57.70573 12.30741 40082 ft 404 kts 314°
2026-04-23 20:13 57.74508 12.23269 40079 ft 405 kts 314°
2026-04-23 20:13 57.78426 12.15705 40081 ft 405 kts 313°
2026-04-23 20:14 57.82261 12.07972 40089 ft 404 kts 313°
2026-04-23 20:14 57.86083 12.00241 40088 ft 404 kts 312°
2026-04-23 20:15 57.89884 11.92527 40088 ft 404 kts 313°
2026-04-23 20:15 57.93684 11.84790 40089 ft 405 kts 312°
2026-04-23 20:16 57.97512 11.76967 40090 ft 405 kts 312°
2026-04-23 20:16 58.01310 11.69181 40091 ft 405 kts 312°
2026-04-23 20:17 58.05129 11.61325 40093 ft 406 kts 312°
2026-04-23 20:17 58.08943 11.53452 40092 ft 406 kts 312°
2026-04-23 20:18 58.12727 11.45615 40092 ft 406 kts 312°
2026-04-23 20:18 58.16534 11.37701 40090 ft 407 kts 312°
2026-04-23 20:19 58.20340 11.29764 40092 ft 408 kts 311°
2026-04-23 20:19 58.24129 11.21835 40093 ft 408 kts 311°
2026-04-23 20:20 58.27950 11.13811 40092 ft 409 kts 311°
2026-04-23 20:20 58.31746 11.05811 40095 ft 410 kts 311°
2026-04-23 20:21 58.35559 10.97748 40094 ft 410 kts 311°
2026-04-23 20:21 58.38740 10.90998 40090 ft 410 kts 310°
2026-04-23 20:22 58.43169 10.81568 40094 ft 410 kts 310°
2026-04-23 20:22 58.46943 10.73503 40093 ft 410 kts 310°
2026-04-23 20:23 58.50756 10.65324 40094 ft 411 kts 310°
2026-04-23 20:23 58.54539 10.57183 40092 ft 412 kts 310°
2026-04-23 20:24 58.58339 10.48973 40091 ft 412 kts 310°
2026-04-23 20:24 58.62128 10.40759 40095 ft 412 kts 310°
2026-04-23 20:25 58.65903 10.32547 40093 ft 412 kts 309°
2026-04-23 20:25 58.69672 10.24316 40091 ft 412 kts 309°
2026-04-23 20:26 58.73441 10.16058 40091 ft 411 kts 309°
2026-04-23 20:26 58.77206 10.07778 40090 ft 412 kts 309°
2026-04-23 20:27 58.80959 9.99493 40094 ft 413 kts 309°
2026-04-23 20:27 58.84736 9.91127 40096 ft 414 kts 309°
2026-04-23 20:28 58.88483 9.82797 40098 ft 414 kts 309°
2026-04-23 20:28 58.92252 9.74387 40134 ft 414 kts 309°
2026-04-23 20:29 58.95993 9.66008 40090 ft 414 kts 309°
2026-04-23 20:29 58.99748 9.57570 40099 ft 414 kts 309°
2026-04-23 20:30 59.03476 9.49160 40090 ft 415 kts 309°
2026-04-23 20:30 59.09101 9.36412 40114 ft 415 kts 308°
2026-04-23 20:31 59.12861 9.27848 40095 ft 417 kts 308°
2026-04-23 20:31 59.16621 9.19256 40131 ft 417 kts 307°
2026-04-23 20:32 59.20383 9.10627 40088 ft 419 kts 307°
2026-04-23 20:32 59.24147 9.01961 40105 ft 417 kts 307°
2026-04-23 20:33 59.27884 8.93325 40104 ft 418 kts 307°
2026-04-23 20:33 59.31623 8.84650 40108 ft 418 kts 307°
2026-04-23 20:34 59.35355 8.75958 40140 ft 418 kts 307°
2026-04-23 20:34 59.39104 8.67195 40122 ft 417 kts 307°
2026-04-23 20:35 59.40910 8.62971 40143 ft 402 kts 307°
2026-04-23 20:35 59.42680 8.58821 40121 ft 389 kts 307°
2026-04-23 20:35 59.46067 8.50844 40146 ft 380 kts 307°
2026-04-23 20:36 59.47763 8.46837 39827 ft 382 kts 307°
2026-04-23 20:36 59.49462 8.42814 39321 ft 380 kts 307°
2026-04-23 20:36 59.51142 8.38833 38776 ft 378 kts 307°
2026-04-23 20:36 59.52793 8.34914 38256 ft 378 kts 306°
2026-04-23 20:37 59.54476 8.30910 37759 ft 378 kts 306°
2026-04-23 20:37 59.56136 8.26955 37274 ft 379 kts 306°
2026-04-23 20:37 59.57824 8.22927 36808 ft 379 kts 306°
2026-04-23 20:37 59.59481 8.18966 36410 ft 380 kts 306°
2026-04-23 20:38 59.61163 8.14937 35949 ft 382 kts 306°
2026-04-23 20:38 59.62866 8.10852 35456 ft 383 kts 306°
2026-04-23 20:38 59.64536 8.06840 34950 ft 384 kts 306°
2026-04-23 20:38 59.66235 8.02753 34433 ft 384 kts 306°
2026-04-23 20:39 59.67921 7.98689 33939 ft 384 kts 306°
2026-04-23 20:39 59.69608 7.94615 33429 ft 386 kts 306°
2026-04-23 20:39 59.71302 7.90518 32928 ft 384 kts 306°
2026-04-23 20:39 59.72962 7.86497 32418 ft 381 kts 306°
2026-04-23 20:40 59.74637 7.82435 31914 ft 377 kts 306°
2026-04-23 20:40 59.76276 7.78450 31415 ft 374 kts 306°
2026-04-23 20:40 59.77888 7.74526 30933 ft 370 kts 306°
2026-04-23 20:40 59.79517 7.70562 30386 ft 367 kts 306°
2026-04-23 20:41 59.81095 7.66702 29961 ft 362 kts 306°
2026-04-23 20:41 59.82669 7.62846 29478 ft 358 kts 306°
2026-04-23 20:41 59.84209 7.59071 29024 ft 354 kts 306°
2026-04-23 20:41 59.85746 7.55292 28567 ft 351 kts 306°
2026-04-23 20:42 59.87284 7.51507 28105 ft 349 kts 306°
2026-04-23 20:42 59.88800 7.47768 27646 ft 347 kts 306°
2026-04-23 20:42 59.90287 7.44097 27199 ft 344 kts 306°
2026-04-23 20:42 59.91782 7.40399 26748 ft 342 kts 306°
2026-04-23 20:43 59.93263 7.36731 26304 ft 340 kts 307°
2026-04-23 20:43 59.94734 7.33081 25852 ft 339 kts 306°
2026-04-23 20:43 59.96204 7.29428 25413 ft 337 kts 306°
2026-04-23 20:43 59.97656 7.25813 24973 ft 335 kts 306°
2026-04-23 20:44 59.99103 7.22204 24527 ft 334 kts 307°
2026-04-23 20:44 60.00552 7.18589 24094 ft 332 kts 307°
2026-04-23 20:44 60.01966 7.15053 23660 ft 330 kts 307°
2026-04-23 20:44 60.03399 7.11462 23220 ft 328 kts 308°
2026-04-23 20:45 60.04817 7.07906 22789 ft 325 kts 308°
2026-04-23 20:45 60.06204 7.04423 22367 ft 323 kts 308°
2026-04-23 20:45 60.07596 7.00920 21933 ft 321 kts 308°
2026-04-23 20:45 60.08973 6.97451 21512 ft 319 kts 308°
2026-04-23 20:46 60.10338 6.94004 21096 ft 317 kts 308°
2026-04-23 20:46 60.11713 6.90532 20670 ft 315 kts 308°
2026-04-23 20:46 60.13044 6.87163 20264 ft 313 kts 308°
2026-04-23 20:46 60.14391 6.83747 19849 ft 311 kts 308°
2026-04-23 20:47 60.15731 6.80345 19432 ft 309 kts 309°
2026-04-23 20:47 60.17054 6.76982 19023 ft 307 kts 309°
2026-04-23 20:47 60.18364 6.73648 18628 ft 305 kts 309°
2026-04-23 20:47 60.19664 6.70334 18229 ft 303 kts 309°
2026-04-23 20:48 60.20948 6.67057 17832 ft 301 kts 309°
2026-04-23 20:48 60.22235 6.63766 17438 ft 299 kts 309°
2026-04-23 20:48 60.23089 6.61548 17167 ft 298 kts 307°
2026-04-23 20:48 60.24139 6.56516 16619 ft 299 kts 282°
2026-04-23 20:49 60.24162 6.52333 16196 ft 302 kts 270°
2026-04-23 20:49 60.24026 6.48122 15783 ft 300 kts 271°
2026-04-23 20:49 60.23898 6.43972 15402 ft 299 kts 271°
2026-04-23 20:49 60.23770 6.39810 14999 ft 298 kts 271°
2026-04-23 20:50 60.23643 6.35660 14612 ft 296 kts 271°
2026-04-23 20:50 60.23517 6.31592 14224 ft 295 kts 271°
2026-04-23 20:50 60.23390 6.27491 13840 ft 293 kts 271°
2026-04-23 20:50 60.23263 6.23395 13460 ft 292 kts 271°
2026-04-23 20:51 60.23136 6.19333 13081 ft 290 kts 271°
2026-04-23 20:51 60.23009 6.15341 12708 ft 288 kts 271°
2026-04-23 20:51 60.22883 6.11329 12343 ft 286 kts 272°
2026-04-23 20:51 60.22756 6.07376 11966 ft 284 kts 272°
2026-04-23 20:52 60.22630 6.03456 11614 ft 281 kts 272°
2026-04-23 20:52 60.22504 5.99545 11283 ft 280 kts 272°
2026-04-23 20:52 60.22378 5.95670 10887 ft 280 kts 272°
2026-04-23 20:52 60.22251 5.91799 10529 ft 276 kts 272°
2026-04-23 20:53 60.22125 5.87981 10178 ft 273 kts 272°
2026-04-23 20:53 60.21811 5.84190 9810 ft 282 kts 257°
2026-04-23 20:53 60.20898 5.80647 9412 ft 288 kts 246°
2026-04-23 20:53 60.19745 5.77325 8970 ft 296 kts 233°
2026-04-23 20:54 60.18122 5.74751 8487 ft 304 kts 213°
2026-04-23 20:54 60.16137 5.73401 8174 ft 304 kts 191°
2026-04-23 20:54 60.14049 5.73515 7894 ft 299 kts 167°
2026-04-23 20:54 60.12075 5.74645 7758 ft 287 kts 168°
2026-04-23 20:55 60.10135 5.74869 7596 ft 276 kts 183°
2026-04-23 20:55 60.08254 5.74786 7308 ft 274 kts 183°
2026-04-23 20:55 60.06361 5.74412 6955 ft 269 kts 200°
2026-04-23 20:55 60.04650 5.73194 6801 ft 258 kts 205°
2026-04-23 20:56 60.03017 5.71804 6610 ft 247 kts 219°
2026-04-23 20:56 60.01967 5.69408 6461 ft 219 kts 256°
2026-04-23 20:56 60.01494 5.66641 6350 ft 205 kts 263°
2026-04-23 20:56 60.01088 5.63913 6055 ft 206 kts 263°
2026-04-23 20:57 60.00826 5.62096 5836 ft 207 kts 263°
2026-04-23 20:57 60.00520 5.59338 5550 ft 200 kts 277°
2026-04-23 20:57 60.00589 5.56600 5269 ft 195 kts 283°
2026-04-23 20:57 60.00776 5.53070 4914 ft 193 kts 284°
2026-04-23 20:58 60.00924 5.50415 4638 ft 192 kts 284°
2026-04-23 20:58 60.01074 5.47785 4372 ft 191 kts 284°
2026-04-23 20:58 60.01225 5.45167 4126 ft 185 kts 284°
2026-04-23 20:58 60.01321 5.43497 3960 ft 181 kts 285°
2026-04-23 20:59 60.01507 5.40167 3597 ft 182 kts 284°
2026-04-23 20:59 60.01601 5.38509 3415 ft 182 kts 284°
2026-04-23 20:59 60.01782 5.35183 3056 ft 180 kts 284°
2026-04-23 20:59 60.01911 5.32714 2783 ft 178 kts 284°
2026-04-23 21:00 60.02393 5.30654 2512 ft 160 kts 326°
2026-04-23 21:00 60.03412 5.30062 2473 ft 156 kts 355°
2026-04-23 21:00 60.04498 5.29941 2501 ft 153 kts 355°
2026-04-23 21:00 60.05503 5.29710 2488 ft 140 kts 352°
2026-04-23 21:01 60.06443 5.29422 2464 ft 136 kts 351°
2026-04-23 21:01 60.07368 5.29118 2476 ft 131 kts 351°
2026-04-23 21:01 60.08283 5.28815 2478 ft 134 kts 351°
2026-04-23 21:01 60.09201 5.28512 2457 ft 133 kts 351°
2026-04-23 21:02 60.09806 5.28312 2456 ft 134 kts 352°
2026-04-23 21:02 60.11035 5.27905 2455 ft 134 kts 351°
2026-04-23 21:02 60.11959 5.27599 2461 ft 134 kts 351°
2026-04-23 21:02 60.12564 5.27398 2466 ft 133 kts 351°
2026-04-23 21:03 60.13790 5.26993 2474 ft 134 kts 351°
2026-04-23 21:03 60.14398 5.26791 2475 ft 134 kts 351°
2026-04-23 21:03 60.15324 5.26484 2481 ft 134 kts 351°
2026-04-23 21:03 60.16556 5.26075 2477 ft 133 kts 350°
2026-04-23 21:04 60.17412 5.25790 2372 ft 120 kts 351°
2026-04-23 21:04 60.18208 5.25526 2197 ft 113 kts 351°
2026-04-23 21:04 60.18966 5.25273 2049 ft 110 kts 351°
2026-04-23 21:04 60.19736 5.25021 1902 ft 110 kts 351°
2026-04-23 21:05 60.20492 5.24771 1769 ft 110 kts 350°
2026-04-23 21:05 60.21236 5.24522 1615 ft 108 kts 350°
2026-04-23 21:05 60.21984 5.24272 1467 ft 109 kts 350°
2026-04-23 21:05 60.22730 5.24022 1324 ft 109 kts 350°
2026-04-23 21:06 60.23479 5.23771 1162 ft 110 kts 349°
2026-04-23 21:06 60.24240 5.23512 1010 ft 111 kts 349°
2026-04-23 21:06 60.24994 5.23253 854 ft 111 kts 350°
2026-04-23 21:06 60.25770 5.22992 716 ft 113 kts 350°
2026-04-23 21:07 60.26545 5.22737 552 ft 114 kts 349°
2026-04-23 21:07 60.27334 5.22477 407 ft 115 kts 349°
2026-04-23 21:07 60.28141 5.22209 223 ft 117 kts 349°
2026-04-23 21:07 60.28894 5.21954 163 ft 99 kts 349°
2026-04-23 21:08 60.29460 5.21772 147 ft 56 kts 352°
2026-04-23 21:08 60.29747 5.21679 143 ft 39 kts 349°
2026-04-23 21:08 60.29942 5.21612 148 ft 11 kts 350°
2026-04-23 21:08 60.30022 5.21628 152 ft 13 kts 47°
2026-04-23 21:09 60.30043 5.21787 153 ft 0 kts 81°
2026-04-23 21:10 60.30044 5.21790 153 ft 1 kts 81°
2026-04-23 21:10 60.30034 5.21883 153 ft 12 kts 131°
2026-04-23 21:10 60.29916 5.21940 151 ft 21 kts 167°
2026-04-23 21:10 60.29770 5.21991 150 ft 15 kts 171°
2026-04-23 21:11 60.29727 5.22094 151 ft 11 kts 110°
2026-04-23 21:11 60.29679 5.22210 153 ft 7 kts 83°
2026-04-23 21:11 60.29680 5.22234 154 ft 3 kts 107°
2026-04-23 21:11 60.29671 5.22244 155 ft 0 kts 167°